Regional Weather Roundup
Issued by NWS

Home | Current Version | Previous Version | Graphics & Text | Print | Product List | Glossary On
Versions: 1 2 3 4 5 6 7 8 9 10 11 12 13 14 15 16 17 18 19 20 21 22 23 24 25 26 27 28 29 30 31 32 33 34 35 36 37 38 39 40 41 42 43 44 45 46 47 48 49 50
000
ASUS43 KIND 032309
RWRIN

WEATHER ROUNDUP FOR INDIANA
NATIONAL WEATHER SERVICE INDIANAPOLIS IN
700 PM EDT THU SEP 03 2015

NOTE: "FAIR" INDICATES FEW OR NO CLOUDS BELOW 12,000 FEET WITH NO
SIGNIFICANT WEATHER AND/OR OBSTRUCTIONS TO VISIBILITY.

* - STATION DOES NOT REPORT WEATHER SUCH AS PRECIPITATION OR FOG.

+ - STATION NOT QUALITY CONTROLLED BY THE NATIONAL WEATHER SERVICE.
    USE DATA WITH CAUTION...ESPECIALLY DEWPOINT AND RELATIVE
    HUMIDITY OBSERVATIONS.

INZ001>003-010>013-019-020-040000-
NORTHWEST INDIANA

CITY           SKY/WX    TMP DP  RH WIND       PRES   REMARKS
GARY /AIRPORT/ PTSUNNY   90  63  40 W14       29.89S
KNOX *+        CLOUDY    86  68  54 W6        29.89
LA PORTE +     MOSUNNY   88  70  55 W8        29.91S
MICHIGAN CITY+ SUNNY     84  70  61 SW3       29.89S
MONTICELLO +   SUNNY     87  69  55 SW6       29.91R
RENSSELAER +   SUNNY     88  70  55 SW5       29.91S
VALPARAISO     MOSUNNY   88  69  53 SW12      29.91R

$$

LMZ046-743>745-040000-
SOUTHERN LAKE MICHIGAN

STATION/POSITION TIME  TEMP    WIND        PRES    WAVE
                       AIR SEA DIR/SP/G            HT
                 (UTC) (F)     (DEG/KT/KT) (MB)    (FT)
BURNS HARBOR     2200   83     250/  8/ 12 1012.2S
MICHIGAN CITY    2200   82     220/  7/  7   N/A
5NW MICH CITY    2300   80 76  250/  4/  6   N/A     0

$$

INZ004-005-014>016-021>024-040000-
NORTH CENTRAL INDIANA

CITY           SKY/WX    TMP DP  RH WIND       PRES   REMARKS
ELKHART        SUNNY     86  68  54 W8        29.90S
GOSHEN         SUNNY     86  69  56 W9        29.90S
LOGANSPORT +   SUNNY     86  57  37 W7        29.92S
PERU/GRISSOM   SUNNY     88  68  51 W8        29.91S
ROCHESTER +    SUNNY     90  66  45 W8        29.91S
SOUTH BEND     SUNNY     86  69  56 W9        29.90S
WARSAW +       SUNNY     86  68  54 W7        29.91R

$$

INZ006>009-017-018-025>027-040000-
NORTHEAST INDIANA

CITY           SKY/WX    TMP DP  RH WIND       PRES   REMARKS
ANGOLA *+      SUNNY     88  70  55 W3        29.91S
AUBURN +       SUNNY     86  64  48 SW3       29.92R
FORT WAYNE     MOSUNNY   86  66  51 W12       29.92R
HUNTINGTON +   SUNNY     87  60  41 W8        29.91S

$$

INZ028-029-035-036-043>045-051>053-040000-
WEST CENTRAL INDIANA

CITY           SKY/WX    TMP DP  RH WIND       PRES   REMARKS
CRAWFORDSVL +  SUNNY     85  61  43 CALM      29.93F
GREENCASTLE +  SUNNY     86  63  45 CALM      29.94S
LAFAYETTE      SUNNY     88  65  46 W10       29.90F
TERRE HAUTE    SUNNY     89  65  44 W7        29.92F

$$

INZ030>032-037>040-046>048-054>057-064-065-040000-
CENTRAL INDIANA

CITY           SKY/WX    TMP DP  RH WIND       PRES   REMARKS
COLUMBUS       SUNNY     84  63  48 W9        29.94S
FISHERS *+     MOSUNNY   84  70  61 W7        29.93
FRANKFORT +    SUNNY     87  69  54 SW7       29.94F
GREENWOOD *+   SUNNY     86  63  45 SW5       29.95F
INDIANAPOLIS   MOSUNNY   87  65  47 SW13      29.93F
-EAGLE CREEK   SUNNY     87  66  49 SW6       29.93S
KOKOMO *+      SUNNY     88  66  48 W9        29.92S
MARION +       SUNNY     86  55  35 W7        29.94R
MT COMFORT *+  SUNNY     86  55  35 SW6       29.94S
SHELBYVILLE    SUNNY     88  65  46 SW8       29.93F
ZIONSVILLE +   SUNNY     86  66  51 SW5       29.94F

$$

INZ033-034-041-042-049-050-058-059-040000-
EAST CENTRAL INDIANA

CITY           SKY/WX    TMP DP  RH WIND       PRES   REMARKS
MUNCIE         SUNNY     84  67  56 W7        29.94R

$$

INZ060-061-067>069-081>083-085>088-040000-
SOUTHWEST INDIANA

CITY           SKY/WX    TMP DP  RH WIND       PRES   REMARKS
EVANSVILLE     SUNNY     90  66  45 NW5       29.93F
HUNTINGBURG *+ SUNNY     90  64  43 CALM      29.94S
WASHINGTON +   SUNNY     90  57  32 SW5       29.92F

$$

INZ062-063-066-070>080-084-089>092-040000-
SOUTH CENTRAL AND SOUTHEAST INDIANA

CITY           SKY/WX    TMP DP  RH WIND       PRES   REMARKS
BLOOMINGTON    SUNNY     87  68  52 SW3       29.95S
MADISON *+     SUNNY     86  63  45 CALM      29.97S
NORTH VERNON + SUNNY     90  59  35 SW5       29.95S
SEYMOUR +      SUNNY     91  64  40 W6        29.93F

$$




USA.gov is the U.S. government's official web portal to all federal, state and local government web resources and services.